Regional Weather Roundup
Issued by NWS Wakefield, VA

Home | Current Version | Previous Version | Text Only | Print | Product List | Glossary On
Versions: 1 2 3 4 5 6 7 8 9 10 11 12 13 14 15 16 17 18 19 20 21 22 23 24 25 26 27 28 29 30 31 32 33 34 35 36 37 38 39 40 41 42 43 44 45 46 47 48 49 50
329
ASUS41 KAKQ 241015
RWRAKQ

REGIONAL WEATHER ROUNDUP
NATIONAL WEATHER SERVICE WAKEFIELD VA
600 AM EDT FRI MAR 24 2017

Note: "fair" indicates few or no clouds below 12,000 feet with no
significant weather and/or obstructions to visibility. * = Denotes
station may not report precipitation (e.g., rain,snow,etc.),
thunder or fog.

VAZ042-051-052>054-056-241100-
NORTHERN VIRGINIA

CITY           SKY/WX    TMP DP  RH WIND       PRES   REMARKS
WASH NATIONAL  PTCLDY    37  26  64 S14       30.48S
DULLES         MOCLDY    34  22  61 S12       30.43F
FORT BELVOIR   CLOUDY    35  24  63 S7        30.48S
QUANTICO       CLOUDY    38  28  67 SW9       30.50S
FREDERICKSBRG* PTCLDY    33  27  76 S5        30.49S
STAFFORD*      CLOUDY    32  25  74 S5        30.52S
WARRENTON      CLOUDY    36  22  57 S7        30.43F
CULPEPER*      PTCLDY    36  25  65 S7        30.44F
MANASSAS*      PTCLDY    32  24  72 S8        30.46F
LEESBURG*      PTCLDY    36  27  69 S10       30.43F
WINCHESTER     CLOUDY    34  19  55 S3        30.34F
FRONT ROYAL*     N/A    N/A N/A N/A MISG        N/A
LURAY*         CLOUDY    43  27  52 SW8       30.36F
$$

VAZ048-049-060>072-079>083-241100-
CENTRAL AND SOUTH CENTRAL VIRGINIA

CITY           SKY/WX    TMP DP  RH WIND       PRES   REMARKS
RICHMOND       CLEAR     32  27  81 S5        30.51F
CHESTERFIELD*  FAIR      30  12  47 S5        30.52F
PETERSBURG*    CLEAR     30  26  84 CALM      30.52F
HANOVER        CLOUDY    34  24  67 S9        30.51F
TAPPAHANNOCK*  CLOUDY    32  12  44 S5        30.52S
QUINTON*       FAIR      32  27  80 S5        30.52F
CHARLOTTSVILLE PTCLDY    37  20  50 S13       30.43F
GORDONSVILLE*  MOSUNNY   32  23  69 SW3       30.45F
ORANGE*        PTCLDY    34  23  64 S9        30.45F
LOUISA*        CLOUDY    36  28  75 S5        30.45F
BUMPASS*       FAIR      32  25  75 S5        30.48S
FARMVILLE*     MOCLDY    33  29  84 S3        30.47F
CREWE*         FAIR      33  28  83 S3        30.49F
FORT PICKETT*  FAIR      30  25  80 S5        30.50F
CHASE CITY*    FAIR      34  28  80 CALM      30.50S
CLARKSVILLE*   FAIR      34  30  86 S3        30.50F
SOUTH HILL*    CLEAR     30  28  90 S5        30.57S
LAWRENCEVILLE* FAIR      31  26  81 CALM      30.52S
EMPORIA*       CLEAR     27  27 100 CALM      30.56R
$$

VAZ088>098-241100-
SOUTHEAST VIRGINIA

CITY           SKY/WX    TMP DP  RH WIND       PRES   REMARKS
NORFOLK        CLEAR     33  26  75 SW5       30.53S
VIRGINIA BEACH CLEAR     30  24  78 CALM      30.53F
NORFOLK NAVAL  CLEAR     35  27  72 S5        30.55R
WEST POINT*    CLEAR     34  25  70 S7        30.55S
SALUDA*        FAIR      30  27  87 CALM      30.53S
NEWPORT NEWS   CLEAR     31  27  85 CALM      30.54S
LANGLEY AFB    CLEAR     33  28  79 SW3       30.53F
FORT EUSTIS    CLEAR     36  28  72 S6        30.51S
WILLIAMSBURG*  CLEAR     36  28  75 CALM      30.54F
HR EXEC AP*    FAIR      27  21  80 CALM      30.54R
FRANKLIN*      CLEAR     28  25  88 CALM      30.55S
US460-WAKEFLD  CLEAR     28  25  88 CALM      30.54S
$$

VAZ020-022-025-037-045-241100-
WEST CENTRAL AND SOUTHWEST VIRGINIA

CITY           SKY/WX    TMP DP  RH WIND       PRES   REMARKS
STAUNTON*      CLOUDY    32  21  64 W3        30.40F
WAYNESBORO*    SUNNY     35  22  57 CALM      30.38F
HOT SPRINGS VA CLOUDY    37  18  44 SW7       30.33S
LYNCHBURG      CLOUDY    33  23  66 S6        30.46F
DANVILLE       PTCLDY    32  29  88 CALM      30.50S
SOUTH BOSTON*  FAIR      32  26  80 CALM      30.50F
MARTINSVILLE   PTCLDY    29  23  79 CALM      30.50S
ROANOKE        CLOUDY    40  24  53 SE7       30.45S
BLACKSBURG     CLOUDY    43  26  51 SW3       30.42F
DUBLIN*        CLOUDY    41  31  68 SW3       30.40F
MARION*        CLOUDY    43  26  51 CALM      30.40S
HILLSVILLE*    CLOUDY    42  26  53 S12G17    30.39S
RICHLANDS*     CLOUDY    47  30  51 CALM      30.33S
WISE*          CLEAR     48  28  46 S10G18    30.34S
ABINGDON*      CLOUDY    48  29  48 CALM      30.37S
$$

MDZ021>025-VAZ099-100-241100-
SOUTHERN MARYLAND AND THE DELMARVA PENINSULA

CITY           SKY/WX    TMP DP  RH WIND       PRES   REMARKS
PATUXENT RIVER PTCLDY    36  31  82 S12       30.50F
BAY BRIDGE APT CLOUDY    39  28  65 S9        30.48F
LEONARDTOWN    CLEAR     34  23  64 S5        30.52R
DOVER          CLOUDY    33  28  83 S10       30.49F WCI  25
GEORGETOWN     CLOUDY    30  25  81 S5        30.53R
EASTON         CLOUDY    34  28  79 S6        30.54S
CAMBRIDGE      MOCLDY    37  28  70 S9        30.50F
SALISBURY      CLOUDY    29  24  82 CALM      30.53R
OCEAN CITY     CLEAR     38  28  67 SW9       30.54R
WALLOPS ISLAND CLEAR     39  30  70 S12       30.54S
ACCOMACK*      CLEAR     36  28  71 S6        30.53S
$$

NCZ012>017-030>032-241100-
NORTH CENTRAL AND EASTERN NORTH CAROLINA

CITY           SKY/WX    TMP DP  RH WIND       PRES   REMARKS
ROANOKE RAPIDS FAIR      28  28 100 CALM      30.54R
RALEIGH        PTCLDY    37  29  72 S5        30.52S
ELIZABETH CITY CLEAR     33  29  85 CALM      30.55S
AHOSKIE*         N/A     28  26  93 CALM      30.55R
EDENTON*       CLEAR     35  32  88 CALM      30.56R
CURRITUCK*     CLEAR     32  32 100 CALM      30.56R
KILL DEVIL HLS NOT AVBL
MANTEO         CLEAR     37  33  84 E3        30.55S
CAPE HATTERAS  CLEAR     44  38  79 NE7       30.53S
TARBORO*       NOT AVBL
GOLDSBORO      CLEAR     32  32  99 CALM      30.52S
WASHINGTON     CLEAR     31  28  90 CALM      30.55S
GREENVILLE     CLEAR     32  30  93 CALM      30.54S
NEW BERN       CLEAR     35  33  92 NE3       30.55R
WILMINGTON     CLEAR     35  32  88 NE5       30.52S
$$

VAZ048-241100-
ELSEWHERE

CITY           SKY/WX    TMP DP  RH WIND       PRES   REMARKS
HARRISBURG PA  CLOUDY    35  21  56 SE7       30.40F
BALTIMORE      CLOUDY    32  23  69 CALM      30.47F
ANNAPOLIS      CLOUDY    38  25  59 S9        30.48F
ANDREWS AFB    PTCLDY    33  24  70 S7        30.46S
PHILADELPHIA   MOCLDY    32  23  69 S6        30.51S
HENDERSON NC   CLEAR     32  27  81 S6        30.51S
GREENSBORO     CLEAR     38  30  73 S6        30.48R
ROCKY MOUNT    CLEAR     30  30 100 CALM      30.54S
$$

VAZ100-241100-
MARINE

STATION/POSITION TIME  TEMP    WIND        PRES    WAVE   SWELL
                       AIR SEA DIR/SP/G            HT/PER HT/PER
                 (UTC) (F)     (DEG/KT/KT) (MB)    (FT/S) (FT/S)
CAPE MAY NJ      0948   39 42  200/  8/ 11 1033.3R
LEWES DE         0942   36 41  200/  5/  8 1033.5R
OCEAN-CITY-INLET 0942   41 42  220/ 13/ 15 1034.4R
WACHAPREAGUE VA  0948   41 45  200/  8/ 12 1033.7F
THOMAS POINT MD  1000   40 43  190/ 21/ 22   N/A
GOOSES REEF MD   0950   40     190/ 14/ 17 1033.1F
COVE POINT MD    0948   38     200/ 14/ 17 1033.4F
SOLOMONS ISLAND  0942   38 44  200/ 11/ 15   N/A
BISHOPS HEAD MD  0948   41 42  180/ 12/ 15 1033.4F
PINEY POINT MD   0948          200/  6/  8   N/A
POTOMAC MD       0950   39     210/ 12/ 14 1032.6F
CAMBRIDGE MD     0948   37 44  170/  5/  8 1032.3S
LEWISETTA VA     0948   36 47  210/  9/ 12 1032.9F
RAPPAHANNOCK LGT 0948          160/ 12/ 13 1034.4S
STINGRAY PT      0950   41     210/ 12/ 16 1033.8F
YORK RVR RNG VA  0948   40     190/ 12/ 14 1033.3F
YORKTOWN VA      0948   36 47  200/  2/  4 1033.8S
JAMESTOWN VA     0950   34     160/  6/ 10   N/A
DOMINION TERM VA 0948   39     180/  7/  8 1034.2R
KIPTOPEKE VA     0942      45  170/ 10/ 12   N/A
CHES BAY BRIDGE  0948   41 47  180/  9/ 11 1033.9F
CAPE HENRY VA    0948   39     170/  7/  9   N/A
WILLOUBY STN VA  0948   38     190/  6/  7 1034.9R
S CRANEY ISL VA  0948   37     190/  4/  5 1033.9R
CAPE HENRY BUOY  0942      45                N/A     3/ 6
CAPE CHARLES BUO 0951      45                N/A     3/ 3
OFFSHORE WE BUOY 0951      45                N/A     3/ 7
64NM E OF VA BCH 0950   46 48  120/  6/  6 1034.0F   3/ 9   3/ 9
DUCK PIER NC     0948   43 47  100/  6/  7 1033.9R
44100 DUCK FRF   0905      47                N/A     3/ 9   2/11
44056 DUCK FRF   0930      47                N/A     3/ 8   2/11
OREGON INLET NC  0942   44 49   50/  6/  8 1034.1R
HATTERAS NC      0948   45 51   40/  5/  7 1033.4R
DIAMOND SHLS NC  0950   57 74  160/ 10/ 14 1033.6R   6/10   7/10
CAPE LOOKOUT NC  0900   47      10/ 11/ 13 1032.7F
$$




USA.gov is the U.S. government's official web portal to all federal, state and local government web resources and services.